User: anonymous   Login
Location: Unspecified
(0.0000°N, 0.0000°E)
Time: 19:01:49
(UTC+00:00)
Language:

Transit 2A Rocket - Orbit

View from above orbital plane
View from above orbital plane
View from above satellite
View from above satellite

Ground track
Ground track

The orbit data is extracted from the following two-line orbital elements,

1 00047U 60007C   15185.51491328  .00000346  00000-0  10215-3 0  9992
2 00047 066.6668 313.3226 0230214 189.0601 170.6319 14.41651265874188
Epoch (UTC): 04 July 2015 12:21:28
Eccentricity: 0.0230214
inclination: 66.6668°
perigee height: 589 km
apogee height: 917 km
right ascension of ascending node: 313.3226°
argument of perigee: 189.0601°
revolutions per day: 14.41651265
mean anomaly at epoch: 170.6319°
orbit number at epoch: 87418

The dashed part of the orbit path shows where the satellite is in the earth's shadow,  

DLR